Погода в Хабаровске

Погода в Хабаровске : погода сейчас, прогноз погоды и архив. Всё, что Вы хотите узнать о погоде в Хабаровске!

Хотите узнать прогноз погоды в Хабаровске? Тогда Вам сюда: Погода в Хабаровске

Поиск расширенной информации на нашем сайте:

Другие новости

Новости СМИ2

Главная страница сайта

Новости сайта

03.07.2017

Напоминаем, что на нашем специализированном сайте Метеоцентр.Азия вы можете получить высокодетализированные автоматические прогнозы погоды по пунктам России, СНГ и мира в авиационном формате (включающие направление и скорость ветра, видимость, явления погоды, количество и форму облачности, нижнюю и верхнюю границу облачности).


Погода в Хабаровске - сегодня

Время (UTC), дата Ветер
(°,м/с) 
Видим.   Явления Облачность Т
(°С)
Тd
(°С)
f(%) Тe
(°С)
Pmin
(гПа)
dP
(гПа)
Po
(мм)
O2
(г/м3)
Тmin Tmax R s Состояние
почвы
00 17.10.17 270 (З) 5{11}  5000 м  слаб. ливневой снег  10/10 330 м кучево-дожд. 
[Cb cap]
+0.2 -0.5 95 -3  1019.4  758  305           
03 17.10.17 330 (СЗ) 10 км  в посл. час ливневой снег  8/6 540 м кучево-дожд., средняя 
[Cb cap|Ac trans]
+3.4 +0 78 +1  1020.7  1.3  759  302           
06 17.10.17 260 (З) 10 км  {ливн. осадки}  8/5 600 м кучево-дожд., верхняя 
[Cb cap|Ci fib]
+6.3 -7.8 36 +5  1020.9  0.4  759  300           
09 17.10.17 290 (З) 7-10{11}  10 км    5/0 верхняя 
[Ci fib]
+2.9 -12.3 32 1022.4  1.5  760  304    +6.5  0.0     
12 17.10.17 280 (З) 8-11{12}  10 км    5/0 верхняя 
[Ci fib]
+0.3 -12.4 38 -4  1024.5  762  308           
15 17.10.17 280 (З) 6{12}  10 км    5/0 верхняя 
[Ci fib]
-1.5 -11.6 46 -5  1025.7  763  310           
18 17.10.17 250 (З) 10 км    5/0 верхняя 
[Ci fib]
-4 -10.4 61 -7  1027  1.3  764  313           
21 17.10.17 250 (З) 10 км    5/0 верхняя 
[Ci fib]
-5.3 -10.6 66 -8  1027.6  0.5  764  315  -5.9         
00 18.10.17 270 (З) 10 км    3/0 верхняя 
[Ci fib]
-1.2 -10.8 48 -2  1028.4  0.7  765  310           
03 18.10.17 240 (ЮЗ) 10 км    3/0 верхняя 
[Ci fib]
+2.9 -12.4 31 1027.8  -0.2  764  306           
06 18.10.17 230 (ЮЗ) 5{10}  10 км    8/0 верхняя 
[Ci fib]
+3.9 -14.6 24 +2  1026.9  -1.2  764  305           
09 18.10.17 180 (Ю) 2900 м  дым  9/0 средняя, верхняя 
[Ac trans|Ci fib]
+1.2 -13.4 33 +1  1026.5  -0.5  763  307    +4.8       
12 18.10.17 160 (Ю) 3200 м  дым  9/0 средняя, верхняя 
[Ac trans|Ci fib]
-1.8 -10.5 51 -3  1025.9  -0.7  763  310           
15 18.10.17 190 (Ю) 2600 м  дым  10/0 средняя 
[Ac und]
-1.9 -10.2 53 -3  1025.2  -0.7  762  310           
18 18.10.17 120 (ЮВ) 4000 м  дым  9/0 средняя 
[Ac trans]
-4 -9.2 67 -5  1024.2  -1  761  312           
21 18.10.17 100 (В) 10 км    9/0 средняя 
[Ac trans]
-3.8 -7.2 77 -5  1022.7  -1.3  760  312  -4.6         
00 19.10.17 110 (В) 10 км    10/0 средняя 
[As trans]
-0.2 -7 60 -2  1022.4  -0.4  760  307           
03 19.10.17 090 (В) 10 км    10/0 средняя, верхняя 
[Ac trans|Cs]
+4.5 -7.6 41 +3  1020.8  -1.2  759  302           
06 19.10.17 080 (В) 10 км    9/3 1000 м средняя, верхняя 
[Sc|Ac trans|Ci fib]
+6.6 -8.5 33 +6  1019.7  -1.2  758  299           
09 19.10.17 050 (СВ) 10 км    9/0 верхняя 
[Ci fib]
+1.3 -8 50 1020.6  0.9  759  305    +6.8       
12 19.10.17 030 (СВ) 10 км    9/0 верхняя 
[Ci fib]
-0.3 -7.4 59 -2  1021.6  0.8  760  307           
15 19.10.17 360 (С) 10 км    9/0 верхняя 
[Ci fib]
-2.4 -6.8 72 -3  1021.9  0.4  760  310           
18 19.10.17 020 (С) 10 км    6/0 верхняя 
[Ci fib]
-3.3 -6.5 78 -5  1022.3  0.1  760  311           
21 19.10.17 030 (СВ) 6000 м  дым  8/0 верхняя 
[Ci fib]
-4.9 -6.8 87 -7  1022.3  -0.1  760  313  -5         
00 20.10.17 040 (СВ) 6000 м  дым  4/0 верхняя 
[Ci fib]
-0.9 -3.1 85 -3  1022.5  0.4  760  308  +5.1         
Время (UTC), дата Ветер
(°,м/с) 
Видим.   Явления Облачность Т
(°С)
Тd
(°С)
f(%) Тe
(°С)
Pmin
(гПа)
dP
(гПа)
Po
(мм)
O2
(г/м3)
Тmin Tmax R s Состояние
почвы

Для получения пояснительной информации подведите курсор к названию столбца.

ПОГОДА в Хабаровске - архив

Всё, что Вы хотите узнать о погоде в Хабаровске - удобно и подробно!

Выберите нужную дату (начиная с 1 января 2015* года) и нажмите кнопку "Найти".
Будут отображены архивные сводки погоды по пункту Хабаровск, начиная с указанной даты.


Отображать данные в формате CSV (для использования в таблицах Excel)


Внимание! Наш архив погоды предназначен исключительно для личного некоммерческого использования в познавательных целях. Если Вам необходимы официальные справки о состоянии погоды (для производственных, юридических, коммерческих и т.п. целей), обращайтесь в органы Росгидромета.

*Примечание: данная дата относится к архиву по метеостанциям СССР (Россия, СНГ, Балтия).
Архив по метеостанциям Зарубежной Европы и Азии (кроме Китая) хранится 10 дней, по другим регионам земного шара (Китай, Африка, Америка, Австралия, Океания) - 1 день.

Хабаровск - район местоположения метеостанции


Название, широта, долгота, высота метеостанции:
Хабаровск 48.5°ш. 135.2°д. 76 м над ур. моря [Российская Федерация]

Дополнительная информация

В oтличие oт бoльшинства пoгoдных сайтoв мы публикуем пoдрoбную метеoинфoрмацию в детальнoм прoфессиoнальнoм фoрмате.

Характеристики температуры и влажнoсти вoздуха измеряются на высoте 2 м в тени вдали oт зданий и деревьев.
Скoрoсть ветра измеряется на высoте 10 м (на урoвне рoста челoвека скoрoсть ветра ниже в 1.5-2 раза). Если метеoстанция нахoдится в гoрoде или в лесу, тo скoрoсть ветра занижена на 2-4 м/с пo сравнению с oткрытым местoм. Скoрoсть ветра над акватoриями крупных рек и oзёр, а также на вершинах хoлмoв на 2-5 м/с выше, чем в oбычных услoвиях.
Атмoсфернoе давление в разных тoчках местнoсти мoжет значительнo oтличаться oт давления на метеoстанции, в зависимoсти oт услoвий рельефа (при пoдъёме на 10 м давление пoнижается примернo на 1 мм рт.ст.).